Location: Lac de la Montange Noire
(46.1952°N, 74.2701°W)
Time: 15:46:39
(UTC-04:00)

Iridium 42 - Visible Passes

Search period start: 26 May 2018 00:00
Search period end: 05 June 2018 00:00
Orbit: 775 x 778 km, 86.4° (Epoch: 25 May)

Date Brightness Start Highest point End Pass type
(mag) Time Alt. Az. Time Alt. Az. Time Alt. Az.
26 May 6.1 00:15:40 39° ESE 00:16:49 45° E 00:21:47 10° NNE visible
26 May 7.0 01:56:07 21° WSW 01:57:45 24° WNW 02:01:59 10° NNW visible
26 May 6.8 23:41:51 23° ESE 23:43:13 26° E 23:47:29 10° NNE visible
27 May 6.3 01:22:17 35° WSW 01:23:40 42° W 01:28:38 10° N visible
27 May 7.5 23:08:01 13° E 23:09:44 15° ENE 23:12:36 10° NE visible
28 May 5.5 00:48:28 51° SSW 00:49:44 75° W 00:54:59 10° N visible
28 May 7.9 02:30:51 10° WNW 02:31:25 10° WNW 02:31:59 10° WNW visible
29 May 5.6 00:14:37 47° SE 00:15:56 63° E 00:21:06 10° N visible
29 May 7.4 01:55:04 15° W 01:57:07 18° WNW 02:00:40 10° NNW visible
29 May 6.4 23:40:46 30° ESE 23:42:15 35° E 23:46:58 10° NNE visible
30 May 6.8 01:21:13 25° WSW 01:22:58 31° WNW 01:27:35 10° NNW visible
30 May 7.1 23:06:55 17° ESE 23:08:41 21° ENE 23:12:28 10° NNE visible
31 May 5.9 00:47:22 39° SW 00:48:58 54° W 00:54:05 10° N visible
31 May 7.7 22:33:32 10° E 22:35:15 12° ENE 22:36:59 10° NE visible
01 Jun 5.4 00:13:30 47° S 00:15:04 86° E 00:20:20 10° N visible
01 Jun 7.8 01:54:04 10° W 01:56:32 13° WNW 01:59:01 10° NW visible
01 Jun 5.9 23:39:38 35° SE 23:41:19 49° E 23:46:20 10° NNE visible
02 Jun 7.2 01:20:04 18° WSW 01:22:18 23° WNW 01:26:25 10° NNW visible
02 Jun 6.7 23:05:46 22° ESE 23:07:42 28° E 23:12:05 10° NNE visible
03 Jun 6.5 00:46:12 28° SW 00:48:13 39° W 00:53:07 10° N visible
03 Jun 7.4 22:31:53 12° ESE 22:34:11 16° ENE 22:37:19 10° NE visible
04 Jun 5.6 00:12:19 38° SSW 00:14:16 69° W 00:19:29 10° N visible
04 Jun 5.6 23:38:26 37° SSE 23:40:26 68° E 23:45:38 10° N visible
